TimeCDT,TemperatureF,Dew PointF,Humidity,Sea Level PressureIn,VisibilityMPH,Wind Direction,Wind SpeedMPH,Gust SpeedMPH,PrecipitationIn,Events,Conditions,WindDirDegrees,DateUTC
12:53 AM,75.9,73.9,94,29.94,9.0,Calm,Calm,-,N/A,,Clear,0,2013-07-12 05:53:00
1:53 AM,77.0,75.0,94,29.94,8.0,Calm,Calm,-,N/A,,Scattered Clouds,0,2013-07-12 06:53:00
2:53 AM,75.9,73.9,94,29.93,7.0,Calm,Calm,-,N/A,,Clear,0,2013-07-12 07:53:00
3:53 AM,77.0,75.0,94,29.93,6.0,Calm,Calm,-,N/A,,Clear,0,2013-07-12 08:53:00
4:53 AM,77.0,75.0,94,29.95,9.0,Calm,Calm,-,N/A,,Clear,0,2013-07-12 09:53:00
5:53 AM,77.0,75.0,94,29.96,10.0,Calm,Calm,-,N/A,,Scattered Clouds,0,2013-07-12 10:53:00
6:53 AM,78.1,75.0,90,29.96,10.0,Calm,Calm,-,N/A,,Mostly Cloudy,0,2013-07-12 11:53:00
7:53 AM,80.1,75.9,87,29.98,10.0,WNW,3.5,-,N/A,,Clear,300,2013-07-12 12:53:00
8:53 AM,82.9,75.0,77,29.99,10.0,NNW,6.9,-,N/A,,Mostly Cloudy,330,2013-07-12 13:53:00
9:53 AM,86.0,75.0,70,30.00,10.0,NW,11.5,17.3,N/A,,Partly Cloudy,320,2013-07-12 14:53:00
10:53 AM,89.1,72.0,57,29.99,10.0,NW,8.1,-,N/A,,Partly Cloudy,320,2013-07-12 15:53:00
11:53 AM,89.1,73.0,59,29.98,10.0,Variable,5.8,-,N/A,,Mostly Cloudy,0,2013-07-12 16:53:00
12:53 PM,91.0,73.9,57,29.96,10.0,West,5.8,-,N/A,,Scattered Clouds,270,2013-07-12 17:53:00
1:53 PM,91.0,73.9,57,29.95,10.0,Variable,4.6,-,N/A,,Partly Cloudy,0,2013-07-12 18:53:00
2:53 PM,91.9,75.0,58,29.94,10.0,Variable,5.8,-,N/A,,Partly Cloudy,0,2013-07-12 19:53:00
3:53 PM,93.0,73.9,54,29.92,10.0,South,8.1,-,N/A,,Clear,180,2013-07-12 20:53:00
4:53 PM,93.0,73.9,54,29.90,10.0,SSW,6.9,-,N/A,,Clear,210,2013-07-12 21:53:00
5:53 PM,90.0,77.0,65,29.89,10.0,SW,4.6,-,N/A,,Clear,220,2013-07-12 22:53:00
6:53 PM,90.0,77.0,65,29.88,10.0,SW,4.6,-,0.00,,Partly Cloudy,220,2013-07-12 23:53:00
7:53 PM,87.1,75.9,69,29.90,10.0,SW,8.1,-,N/A,Thunderstorm,Clear,220,2013-07-13 00:53:00
8:53 PM,80.1,75.9,87,29.92,10.0,West,6.9,-,0.01,Rain,Light Rain,270,2013-07-13 01:53:00
9:53 PM,80.1,75.0,85,29.92,10.0,Calm,Calm,-,0.00,,Partly Cloudy,0,2013-07-13 02:53:00
10:53 PM,79.0,75.9,90,29.93,10.0,Calm,Calm,-,N/A,,Clear,0,2013-07-13 03:53:00
11:53 PM,79.0,75.9,90,29.94,10.0,Calm,Calm,-,N/A,,Clear,0,2013-07-13 04:53:00